Regional Weather Roundup
Issued by NWS Sioux Falls, SD

Home | Current Version | Previous Version | Text Only | Print | Product List | Glossary On
Versions: 1 2 3 4 5 6 7 8 9 10 11 12 13 14 15 16 17 18 19 20 21 22 23 24 25 26 27 28 29 30 31 32 33 34 35 36 37 38 39 40 41 42 43 44 45 46 47 48 49 50
000
ASUS43 KFSD 232210
RWRFSD

WEATHER ROUNDUP FOR SE SOUTH DAKOTA/SW MINNESOTA/NW IOWA
NATIONAL WEATHER SERVICE SIOUX FALLS SD
500 PM CDT MON APR 23 2018

NOTE: "FAIR" INDICATES FEW OR NO CLOUDS BELOW 12,000 FEET WITH NO
SIGNIFICANT WEATHER AND OR OBSTRUCTIONS TO VISIBILITY.


SDZ038>040-050-052>070-232300-
SOUTHEAST SOUTH DAKOTA

CITY           SKY/WX    TMP DP  RH WIND       PRES   REMARKS
BROOKINGS      MOSUNNY   66  37  34 CALM      30.13F
CHAMBERLAIN    CLOUDY    69  42  36 S10G16    30.07F
HURON          MOSUNNY   70  39  32 SE9       30.08F
MADISON        FAIR      66  37  34 E7        30.12F
MITCHELL       CLOUDY    69  40  34 MISG      30.09F
SIOUX FALLS    MOSUNNY   69  34  27 VRB6      30.11F
WINNER         MOCLDY    71  37  28 S18       30.05F
YANKTON        SUNNY     70  35  27 VRB6      30.10F
$$

MNZ071-072-080-081-089-090-097-098-232300-
SOUTHWEST MINNESOTA

CITY           SKY/WX    TMP DP  RH WIND       PRES   REMARKS
FAIRMONT       SUNNY     62  40  44 CALM      30.16F
JACKSON        SUNNY     63  36  36 E5        30.16S
LUVERNE        SUNNY     66  34  30 SE5       30.13F
MARSHALL       SUNNY     66  35  31 W5        30.14F
MONTEVIDEO     SUNNY     72  37  28 W3        30.14F
PIPESTONE      SUNNY    N/A N/A N/A SE5       30.14F
REDWOOD FALLS  SUNNY     66  38  35 S6        30.14F
TRACY          SUNNY     65  37  35 CALM      30.14F
WINDOM         SUNNY     64  36  34 N6        30.15F
WORTHINGTON    SUNNY     64  39  39 NE7       30.15F
$$

IAZ001>003-012>014-020>022-031-032-NEZ013-014-SDZ071-232300-
NORTHWEST IOWA

CITY           SKY/WX    TMP DP  RH WIND       PRES   REMARKS
CHEROKEE       SUNNY     68  37  31 E8        30.12F
DENISON        SUNNY     70  32  24 VRB6G15   30.10F
ESTHERVILLE    SUNNY     60  43  53 NE9       30.15F
LE MARS        SUNNY     72  28  20 SE9       30.10F
ORANGE CITY    SUNNY     72  36  26 SE7       30.12S
SHELDON        SUNNY     68  34  28 VRB5G15   30.11F
SIOUX CITY     SUNNY     73  31  21 NE6       30.09F
SPENCER        SUNNY     66  35  31 NE9       30.14F
STORM LAKE     SUNNY     66  37  34 NE9       30.12F
$$

ABBREVIATIONS USED IN REMARKS
   TC - TEMPERATURE IN CELSIUS
  WCI - WIND CHILL INDEX
   HX - HEAT INDEX
  VSB - VISIBILITY




USA.gov is the U.S. government's official web portal to all federal, state and local government web resources and services.